Tracking 25195 objects as of 21-Jan-2022
HD Live streaming from Space Station
objects crossing your sky now

STARLINK-2034

Track STARLINK-2034 now!
10-day predictions
STARLINK-2034 is classified as:


NORAD ID: 47352
Int'l Code: 2021-005D
Perigee: 553.2 km
Apogee: 555.4 km
Inclination: 53.1 °
Period: 95.6 minutes
Semi major axis: 6925 km
RCS: Unknown
Launch date: January 20, 2021
Source: United States (US)
Launch site: AIR FORCE EASTERN TEST RANGE (AFETR)
aabbcc
Your satellite tracking list
Your tracking list is empty




NASA's NSSDC Master Catalog

Two Line Element Set (TLE):
1 47352U 21005D   22020.34091617  .00008845  00000-0  61172-3 0  9991
2 47352  53.0557 357.3481 0001555  57.6475 302.4665 15.06414310 56203
Source of the keplerian elements: AFSPC